Other Public Products
Issued by NWS Grand Forks, ND

Home | Current Version | Previous Version | Graphics & Text | Print | Product List | Glossary On
Versions: 1 2 3 4 5 6 7 8 9 10 11 12 13 14 15 16 17 18 19 20 21 22 23 24 25 26 27 28 29 30 31 32 33 34 35 36 37 38 39 40 41 42 43 44 45 46 47 48 49 50
487
FPUS83 KFGF 252331
OPUFGF
PRAIRIE TO PINES WEATHER ROUNDUP
NATIONAL WEATHER SERVICE EASTERN NORTH DAKOTA/GRAND FORKS ND
600 PM CDT TUE APR 25 2017

 **SATELLITE DATA USED TO AUGMENT SKY COVER AT AUTOMATED STATIONS**
 *****  WEATHER ACROSS EASTERN NORTH DAKOTA  *****

CITY           SKY/WX    TMP DP  RH WIND       PRES   REMARKS
GRAND FORKS    CLOUDY    38  29  70 N21G30    29.86R
GRAND FORKS AF CLOUDY    35  27  74 NE23      29.87R WCI  23
GRAND CITY NWS NOT AVBL
BUXTON           N/A     35  31  83 N20G32      N/A  WCI  25
DEVILS LAKE    CLOUDY    35  27  72 NE18G24   29.90R WCI  24
FARGO          CLOUDY    38  31  76 N23       29.78R
WAHPETON ARPT  CLOUDY    37  32  81 N15G28    29.73S
$$

 *****  WEATHER ACROSS CENTRAL AND WESTERN NORTH DAKOTA  *****

CITY           SKY/WX    TMP DP  RH WIND       PRES   REMARKS
JAMESTOWN      CLOUDY    32  27  81 N21G28    29.83S WCI  20
BISMARCK       CLOUDY    36  26  67 N15G25    29.90F
MINOT          CLOUDY    43  25  49 N15       29.92R
MINOT AFB      CLOUDY    42  24  48 NE18      29.92R
GARRISON         N/A     39  25  57 N9G17     29.91R
WILLISTON      PTSUNNY   41  24  51 NE12      29.97R
DICKINSON      CLOUDY    31  23  72 NE14      29.89S WCI  21
HETTINGER      CLOUDY    30  24  78 NE14      29.88F WCI  19
$$

 *****  OTHER OBSERVATIONS NORTHEAST NORTH DAKOTA  *****

CITY           SKY/WX    TMP DP  RH WIND       PRES   REMARKS
WALHALLA       NOT AVBL
LANGDON        CLOUDY    37  28  70 NE22G30   29.90S
CAVALIER       CLOUDY    36  28  75 NE12G18   29.92R
GRAFTON        CLOUDY    34  28  80 N15       29.93R WCI  24
CANDO          NOT AVBL
FORT TOTTEN      N/A     34  28  79 NE8       29.95S
ROLLA          CLOUDY    37  25  60 NE22G29   29.94R
RUGBY          NOT AVBL
 ***** THE ABOVE OBSERVATIONS ARE NON NWS ARE NOT QUALITY
        CONTROLLED AND MAY MIS-REPORT RAIN FOR SNOW...
$$

 *****  OTHER OBSERVATIONS SOUTHEAST NORTH DAKOTA *****

CITY           SKY/WX    TMP DP  RH WIND       PRES   REMARKS
COOPERSTOWN    CLOUDY    32  28  86 N24       29.85S WCI  19
VALLEY CITY    CLOUDY    32  30  93 N21G29    29.84R WCI  20
OAKES          NOT AVBL
GWINNER        CLOUDY    36  30  80 MISG      29.76S
SHEYENNE NWR     N/A     36  29  74 N18       29.95S
BUFFALO          N/A     34  27  76 SE18        N/A  WCI  23
WYNDMERE         N/A     37  34  87 N17         N/A
 ***** THE ABOVE OBSERVATIONS ARE NON NWS ARE NOT QUALITY
       CONTROLLED AND MAY MIS-REPORT RAIN FOR SNOW...
$$

  *****  WEATHER ACROSS NORTHERN MINNESOTA  *****

CITY           SKY/WX    TMP DP  RH WIND       PRES   REMARKS
FLAG ISLAND    CLOUDY    32  25  74 NE20G28   29.91R WCI  20
WARROAD        CLOUDY    32  27  80 NE22G30   29.90R WCI  19
ROSEAU         CLOUDY    34  27  75 NE16G28   29.90R WCI  23
HALLOCK        CLOUDY    36  27  69 NE16      29.91R
THF RVR FALLS  CLOUDY    33  26  75 N20G28    29.85R WCI  21
HALSTAD          N/A     36  30  80 N21         N/A
FOSSTON        CLOUDY    34  30  86 N16G24    29.79R WCI  23
BAUDETTE       CLOUDY    32  25  75 NE21G26   29.86R WCI  20
WASKISH        CLOUDY    34  28  80 NE15G23   29.82R WCI  24
CROOKSTON      CLOUDY    36  28  75 NE18G29   29.85S
$$
  *****  WEATHER ACROSS CENTRAL AND WEST MINNESOTA  *****

CITY           SKY/WX    TMP DP  RH WIND       PRES   REMARKS
BEMIDJI        CLOUDY    34  30  85 N15G21    29.76R WCI  24
PARK RAPIDS    CLOUDY    38  31  76 NE15G21   29.70R
WADENA         CLOUDY    39  34  81 N15       29.67S
DETROIT LAKES  CLOUDY    37  34  87 NE14G21   29.74R
MOORHEAD       CLOUDY    37  30  75 N23       29.78R
FERGUS FALLS   CLOUDY    39  36  87 N14       29.69S
ELBOW LAKE     CLOUDY    42  37  82 N15       29.67S
MORRIS MN      CLOUDY    45  37  76 N21       29.63S
STAPLES        CLOUDY    39  34  81 N10G22    29.66S
WHEATON        CLOUDY    37  34  87 NW16G28   29.71F
$$
  *****  WEATHER ELSEWHERE ACROSS MINNESOTA  *****

CITY           SKY/WX    TMP DP  RH WIND       PRES   REMARKS
DULUTH         CLOUDY    45  40  82 E12       29.66R
INTRNTL FALLS  CLOUDY    30  25  81 NE17G25   29.85R WCI  18
ELY            CLOUDY    34  32  93 N8        29.74R
CLOQUET        LGT RAIN  43  37  81 E12G18    29.67R
BRAINERD       PTSUNNY   44  37  76 N16G23    29.64R
HIBBING        CLOUDY    36  34  92 N13       29.71R
ALEXANDRIA     CLOUDY    44  37  76 N15       29.63S
SAINT CLOUD    LGT RAIN  55  49  80 N9        29.57R
MINNEAPOLIS    LGT RAIN  54  49  83 NE6       29.55R
$$

  *****  WEATHER ACROSS SOUTH DAKOTA  *****

CITY           SKY/WX    TMP DP  RH WIND       PRES   REMARKS
SIOUX FALLS    LGT RAIN  40  40 100 N16       29.63R
BROOKINGS      CLOUDY    36  34  92 N21       29.63S
WATERTOWN      CLOUDY    34  31  88 N23G30    29.66F WCI  22
HURON          CLOUDY    36  31  82 N16G28    29.73R
SISSETON         N/A     37  33  85 N22G29    29.70F
ABERDEEN       CLOUDY    35  27  72 N20G32    29.78R WCI  24
MITCHELL       LGT RAIN  36  35  96 N23G29    29.71F FOG
PIERRE         LGT SNOW  34  29  82 N17       29.79R WCI  23
MOBRIDGE       CLOUDY    35  24  64 N23G29    29.81S WCI  23
RAPID CITY     CLOUDY    28  25  88 N18       29.82S WCI  15
$$

  *****  SOME WEATHER IN NEARBY STATES *****

CITY           SKY/WX    TMP DP  RH WIND       PRES   REMARKS
GLASGOW MT     CLOUDY    42  24  49 SE10      29.92F
GREAT FALLS MT FAIR      48  38  68 NE12      29.78S
CHEYENNE WY    FAIR      40  31  70 N17G28    29.67R
SCOTTSBLUFF NE CLOUDY    43  34  70 N18       29.70S
OMAHA NE       LGT RAIN  46  42  86 NW16G22   29.52R FOG
DES MOINES IA  CLOUDY    71  50  47 SE6       29.42R
DAVENPORT IA   FAIR      77  39  25 SE17G26   29.46S
CHICAGO IL     CLOUDY    78  48  34 S18G25    29.52F
EAU CLAIRE WI  RAIN      56  56 100 E5        29.56F FOG
LA CROSSE WI   CLOUDY    62  54  74 N6        29.52F
$$

  *****  SOME NATIONAL WEATHER *****

CITY           SKY/WX    TMP DP  RH WIND       PRES   REMARKS
LA GUARDIA NY  LGT RAIN  53  50  89 NE26G35   29.90F FOG
RALEIGH NC     PTSUNNY   67  59  75 NW7       29.67R
ATLANTA GA     FAIR      76  55  48 W13       29.74R
NEW ORLEANS LA FAIR      75  59  57 S12       29.75S
OKLAHOMA CITY  PTSUNNY   82  63  52 S16       29.35F
ALBUQUERQUE NM LGT RAIN  55  40  56 N18G33    29.62F
SALT LAKE CITY PTSUNNY   51  38  60 W13G21    29.88R
LOS ANGELES CA FAIR      67  52  58 W22       29.87F
BOISE ID       PTSUNNY   57  32  38 VRB7      29.90F
SEATTLE WA     LGT RAIN  53  43  68 SW6       29.88F
$$

*** WEATHER ACROSS MANITOBA...SASKATCHEWAN AND ONTARIO ***
                ***ONTARIO***

CITY           SKY/WX    TMP DP  RH WIND       PRES   REMARKS
GERALDTON      FLURRIES  23  19  86 NE14      29.92S WCI  11
THUNDER BAY    FRZ RAIN  30  25  80 N12G18    29.81R WCI  21
SIOUX LOOKOUT  CLOUDY    25  19  80 NE7G17    29.95R WCI  17
TORONTO        PTSUNNY   50  46  87 E13       29.89F
BIG TROUT LK   SUNNY     27   5  39 E8G20     30.22S WCI  18
PICKLE LAKE    CLOUDY    25  18  74 NE15G25   30.05S WCI  12
DRYDEN         CLOUDY    27  21  80 NE21G26   29.92R WCI  13
KENORA         CLOUDY    28  23  80 NE12G23   29.93R WCI  18
$$
                *** MANITOBA***

CITY           SKY/WX    TMP DP  RH WIND       PRES   REMARKS
BRANDON        PTSUNNY   39  21  48 NE23G31   29.99R
DAUPHIN        SUNNY     39  12  33 NE17G25   30.08F
ISLAND LAKE    SUNNY     30   5  34 NE10G17   30.21S WCI  21
PILOT MOUND      N/A     39  25  56 N16G24      N/A
THE PAS        MOSUNNY   34   1  25 E7        30.20S
THOMPSON       SUNNY     27  -4  26 NE7       30.28F WCI  19
WINNIPEG       PTSUNNY   43  25  49 NE20G30   29.95R
LYNN LAKE      SUNNY     30   5  34 SE8       30.21F WCI  23
CHURCHILL      SUNNY     10   1  67 S10       30.40F WCI  -3
GILLAM         SUNNY     18   0  45 NE5       30.37R WCI  11
$$
                ***SASKATCHEWAN***

CITY           SKY/WX    TMP DP  RH WIND       PRES   REMARKS
ESTEVAN        PTSUNNY   39  23  52 NE12G18   29.98R
KINDERSLEY     FLURRIES  34  23  64 E18       29.96F WCI  23
LLOYDMINSTER   FLURRIES  32  30  93 SE16      30.01S WCI  21
PRINCE ALBERT  PTSUNNY   39  16  38 S5        30.10F
REGINA         PTSUNNY   37  23  56 NE8       30.02F
YORKTON        SUNNY     39  19  45 N14       30.04F



USA.gov is the U.S. government's official web portal to all federal, state and local government web resources and services.